[[{"header":{"parameterUnit":"m.s-1","parameterCategory":1,"la1":30.2991,"la2":30.254,"lo1":-89.0895,"lo2":-89.0444,"dy":0.0017,"dx":0.0017,"nx":28,"ny":28,"refTime":"2024-10-15T03:00:00:Z","depth":0,"parameterNumber":2,"parameterNumberName":"U-component_of_WINDS"},"data":[0,0,0,0,0,0,0,0,0,0,0,0,0,0,0,0,0,0,0,0,0,0,0,0,0,0,0,0,0,0,0,0,0,0,0,0,0,0,0,0,0,0,0,0,0,0,0,0,0,0,0,0,0,0,0,0,0,0,-0.8866,-0.8866,0,-0.8888,-0.8888,-0.8888,-0.9004,-0.9007,-0.9009,-0.9012,-0.9025,-0.9023,-0.902,0,0,0,0,0,0,0,0,0,0,0,0,0,-0.8915,-0.8914,-0.8866,-0.8866,-0.8867,-0.8888,-0.8888,-0.8888,-0.9003,-0.9007,-0.901,-0.9013,-0.9025,-0.9023,-0.902,0,0,0,0,0,0,0,0,0,0,0,0,0,-0.8911,-0.8913,-0.8866,-0.8927,-0.8933,-0.8888,-0.8888,-0.8888,-0.9003,-0.9007,-0.9011,-0.9015,-0.9026,-0.9023,-0.902,-0.8915,0,0,-0.9009,-0.9008,0,0,0,0,0,0,0,0,-0.8911,-0.8909,-0.8918,-0.8923,-0.8929,-0.8948,-0.891,-0.8897,-0.9002,-0.8976,-0.9012,-0.9017,-0.8995,-0.8994,-0.8989,-0.8916,-0.8916,-0.9009,-0.9007,-0.9006,-0.9005,0,0,0,0,0,0,0,-0.8911,-0.8909,-0.8875,-0.8918,-0.8924,-0.895,-0.8954,-0.8908,-0.8961,-0.8978,-0.8987,-0.8988,-0.8999,-0.8992,-0.899,-0.8916,-0.9009,-0.9006,-0.9004,-0.9003,-0.8754,-0.8749,0,0,0,0,0,0,-0.8904,-0.8908,-0.8874,-0.8875,-0.893,-0.8946,-0.895,-0.8937,-0.8962,-0.897,-0.8985,-0.8994,-0.8996,-0.8994,-0.8991,-0.8866,-0.9006,-0.9002,-0.9,-0.8758,-0.8753,-0.8748,0,0,0,0,0,0,-0.8905,-0.89,-0.8873,-0.8894,-0.8893,-0.8941,-0.8925,-0.8935,-0.8929,-0.8967,-0.8976,-0.8968,-0.8999,-0.8996,-0.8933,-0.8868,-0.9001,-0.8998,-0.8764,-0.8757,-0.875,-0.8618,0,0,0,0,0,0,-0.8906,-0.89,-0.8862,-0.8892,-0.8891,-0.8816,-0.8921,-0.8933,-0.8924,-0.8936,-0.8954,-0.8961,-0.9002,-0.8937,-0.8929,-0.8866,-0.8995,-0.8769,-0.876,-0.8752,-0.8628,-0.8607,-0.859,0,0,0,0,0,-0.8907,-0.8823,-0.886,-0.8855,-0.8846,-0.8813,-0.8812,-0.8863,-0.8918,-0.8879,-0.8904,-0.8961,-0.8878,-0.893,-0.8922,-0.8857,-0.8774,-0.8763,-0.8753,-0.8637,-0.8611,-0.859,0,0,0,0,0,0,-0.8781,-0.8828,-0.8869,-0.8793,-0.8799,-0.8832,-0.8785,-0.8835,-0.8822,-0.8833,-0.8895,-0.8898,-0.8824,-0.8835,-0.8892,-0.8755,-0.8835,-0.8823,-0.8749,-0.8726,-0.8707,-0.8703,-0.8992,0,0,0,0,0,-0.8745,-0.8717,-0.8759,-0.8688,-0.8688,-0.8736,-0.8724,-0.8763,-0.8769,-0.8771,-0.8791,-0.8792,-0.8766,-0.8748,-0.8726,-0.8632,-0.8635,-0.8583,-0.8564,-0.8548,-0.8534,-0.8481,-0.8456,-0.8714,-0.8714,-0.8714,0,0,-0.8669,-0.8691,-0.8669,-0.8663,-0.8671,-0.8637,-0.8737,-0.8697,-0.8671,-0.8764,-0.8705,-0.872,-0.8725,-0.8645,-0.8611,-0.8652,-0.8465,-0.8535,-0.8522,-0.8517,-0.8467,-0.8443,-0.8421,-0.8707,-0.8708,-0.8709,0,0,-0.8512,-0.8528,-0.8469,-0.8476,-0.8489,-0.8521,-0.8507,-0.8533,-0.8547,-0.849,-0.8558,-0.8527,-0.8483,-0.8482,-0.8476,-0.8319,-0.8369,-0.8311,-0.8207,-0.8154,-0.8134,-0.8116,-0.8054,-0.8032,-0.8298,-0.8298,-0.8298,0,-0.8414,-0.8369,-0.8431,-0.8387,-0.8379,-0.8466,-0.8403,-0.8407,-0.841,-0.8401,-0.8449,-0.8393,-0.8403,-0.8322,-0.8283,-0.8278,-0.8259,-0.8306,-0.8133,-0.8115,-0.8099,-0.8041,-0.8018,-0.8291,-0.8291,-0.8292,-0.8293,0,-0.8246,-0.8213,-0.8163,-0.8166,-0.8155,-0.8101,-0.8152,-0.8132,-0.8173,-0.8199,-0.8137,-0.8153,-0.8134,-0.8119,-0.8158,-0.8042,-0.8066,-0.8123,-0.8203,-0.8066,-0.8012,-0.7991,-0.828,-0.8282,-0.8285,-0.8287,0,0,-0.8006,-0.8046,-0.8026,-0.8027,-0.8048,-0.8022,-0.7972,-0.7956,-0.7935,-0.7936,-0.7891,-0.7852,-0.7903,-0.7896,-0.7936,-0.789,-0.7757,-0.7951,-0.7952,-0.7909,-0.7624,-0.7577,-0.7551,-0.7793,-0.779,-0.7787,-0.7622,0,-0.7851,-0.7769,-0.7824,-0.7731,-0.7698,-0.7781,-0.7736,-0.7741,-0.7765,-0.7738,-0.7764,-0.7732,-0.7806,-0.7801,-0.776,-0.7782,-0.77,-0.7796,-0.7746,-0.7744,-0.7736,-0.7524,-0.7475,-0.7318,-0.7602,-0.7598,-0.7596,0,-0.7659,-0.7652,-0.7557,-0.7582,-0.757,-0.7529,-0.7518,-0.7494,-0.7501,-0.7521,-0.7513,-0.7564,-0.7512,-0.7596,-0.7522,-0.7586,-0.757,-0.7578,-0.7573,-0.7565,-0.7657,-0.7504,-0.727,-0.7244,-0.7564,-0.7567,-0.7569,0,-0.7486,-0.7454,-0.7392,-0.7391,-0.742,-0.7389,-0.7399,-0.7411,-0.7397,-0.7387,-0.7378,-0.7361,-0.735,-0.7334,-0.7377,-0.7436,-0.7295,-0.7384,-0.7305,-0.7303,-0.7266,-0.7267,-0.702,-0.7266,-0.7266,-0.7267,-0.7267,0,-0.7304,-0.724,-0.7314,-0.7275,-0.7205,-0.7269,-0.7197,-0.7215,-0.7225,-0.7188,-0.7259,-0.7222,-0.7284,-0.7252,-0.7286,-0.7216,-0.7212,-0.7223,-0.7231,-0.7212,-0.721,-0.7198,-0.7207,-0.7261,-0.7262,-0.7263,-0.7264,0,-0.7097,-0.7145,-0.7081,-0.7115,-0.7122,-0.7068,-0.7095,-0.7058,-0.7088,-0.704,-0.7032,-0.7076,-0.7042,-0.7086,-0.7055,-0.7078,-0.6981,-0.7009,-0.6978,-0.6984,-0.6899,-0.6904,-0.6631,-0.6595,-0.687,-0.6867,-0.6865,0,-0.6974,-0.6928,-0.6957,-0.6939,-0.6946,-0.6915,-0.6903,-0.6963,-0.6945,-0.6949,-0.691,-0.6883,-0.6864,-0.6805,-0.6831,-0.6808,-0.6831,-0.6738,-0.6828,-0.6809,-0.6822,-0.6822,-0.6814,-0.6716,-0.6713,-0.6711,-0.6708,0,-0.675,-0.6776,-0.6756,-0.6744,-0.6727,-0.672,-0.6717,-0.6697,-0.676,-0.6736,-0.6704,-0.6689,-0.6659,-0.6628,-0.6612,-0.6618,-0.667,-0.6681,-0.666,-0.6637,-0.6619,-0.6621,-0.6921,-0.6685,-0.6687,-0.6689,-0.669,-0.6691,-0.6577,-0.6538,-0.6552,-0.6527,-0.6532,-0.6528,-0.6494,-0.652,-0.6495,-0.6476,-0.6514,-0.647,-0.6476,-0.646,-0.646,-0.6424,-0.6464,-0.6435,-0.6427,-0.6417,-0.6401,-0.663,-0.6422,-0.6423,-0.6424,-0.6424,-0.6425,0,-0.6351,-0.6365,-0.6342,-0.6336,-0.6315,-0.6374,-0.6373,-0.635,-0.6312,-0.6315,-0.6295,-0.6255,-0.6226,-0.6252,-0.6227,-0.6193,-0.6216,-0.6183,-0.6183,-0.6182,-0.637,-0.6388,-0.6165,-0.6165,-0.6165,-0.6165,-0.6165,-0.6165,-0.6231,-0.6166,-0.6193,-0.6131,-0.6145,-0.6105,-0.6099,-0.6094,-0.6096,-0.605,-0.6027,-0.6045,-0.6055,-0.6032,-0.6006,-0.6014,-0.5998,-0.5955,-0.597,-0.6144,-0.617,-0.6194,-0.621,-0.5953,-0.5953,-0.5785,-0.5783,-0.5782]},{"header":{"parameterUnit":"m.s-1","parameterCategory":1,"la1":30.2991,"la2":30.254,"lo1":-89.0895,"lo2":-89.0444,"dy":0.0017,"dx":0.0017,"nx":28,"ny":28,"refTime":"2024-10-15T03:00:00:Z","depth":0,"parameterNumber":3,"parameterNumberName":"V-component_of_WINDS"},"data":[0,0,0,0,0,0,0,0,0,0,0,0,0,0,0,0,0,0,0,0,0,0,0,0,0,0,0,0,0,0,0,0,0,0,0,0,0,0,0,0,0,0,0,0,0,0,0,0,0,0,0,0,0,0,0,0,0,0,-0.891,-0.8911,0,-0.8953,-0.8953,-0.8954,-0.9049,-0.9051,-0.9053,-0.9055,-0.9094,-0.9094,-0.9093,0,0,0,0,0,0,0,0,0,0,0,0,0,-0.8907,-0.8907,-0.891,-0.8911,-0.8911,-0.8953,-0.8953,-0.8954,-0.9048,-0.9051,-0.9053,-0.9055,-0.9095,-0.9094,-0.9093,0,0,0,0,0,0,0,0,0,0,0,0,0,-0.8925,-0.8906,-0.891,-0.8964,-0.8969,-0.8952,-0.8953,-0.8954,-0.9048,-0.9051,-0.9054,-0.9057,-0.9095,-0.9094,-0.9093,-0.9027,0,0,-0.9089,-0.9089,0,0,0,0,0,0,0,0,-0.8923,-0.8925,-0.8955,-0.896,-0.8966,-0.8999,-0.8967,-0.8978,-0.9047,-0.9018,-0.9055,-0.9058,-0.906,-0.9062,-0.9063,-0.9029,-0.903,-0.9089,-0.9088,-0.9088,-0.9088,0,0,0,0,0,0,0,-0.8922,-0.8923,-0.8927,-0.8955,-0.8962,-0.8984,-0.899,-0.8969,-0.9022,-0.9021,-0.9028,-0.9031,-0.9063,-0.9064,-0.9065,-0.9031,-0.9089,-0.9088,-0.9087,-0.9087,-0.8941,-0.8938,0,0,0,0,0,0,-0.8914,-0.8922,-0.8926,-0.8928,-0.8952,-0.8982,-0.8988,-0.8985,-0.9022,-0.9031,-0.9029,-0.9036,-0.9065,-0.9066,-0.9067,-0.8989,-0.9088,-0.9087,-0.9086,-0.8945,-0.8941,-0.8937,0,0,0,0,0,0,-0.8913,-0.8913,-0.8924,-0.8927,-0.893,-0.8979,-0.8974,-0.8984,-0.8985,-0.9029,-0.9038,-0.902,-0.9067,-0.9068,-0.9036,-0.8992,-0.9086,-0.9085,-0.8948,-0.8943,-0.8939,-0.8836,0,0,0,0,0,0,-0.8913,-0.8912,-0.8889,-0.8926,-0.8929,-0.8893,-0.8972,-0.8983,-0.8983,-0.8993,-0.9023,-0.9031,-0.9069,-0.9037,-0.9034,-0.8992,-0.9084,-0.8952,-0.8946,-0.8941,-0.8843,-0.8828,-0.8815,0,0,0,0,0,-0.8912,-0.8858,-0.8887,-0.8887,-0.8901,-0.889,-0.8892,-0.8939,-0.898,-0.8955,-0.8983,-0.903,-0.8998,-0.9033,-0.9031,-0.8988,-0.8955,-0.8948,-0.8941,-0.8849,-0.8831,-0.8815,0,0,0,0,0,0,-0.8814,-0.8864,-0.8897,-0.8853,-0.8867,-0.8906,-0.8877,-0.8918,-0.892,-0.8928,-0.8985,-0.8991,-0.895,-0.8966,-0.9004,-0.8924,-0.8984,-0.8976,-0.8915,-0.8898,-0.8884,-0.8879,-0.9083,0,0,0,0,0,-0.8787,-0.8776,-0.882,-0.8776,-0.8782,-0.8828,-0.8825,-0.886,-0.8876,-0.8882,-0.8907,-0.892,-0.8913,-0.8907,-0.8903,-0.8847,-0.8853,-0.8816,-0.8802,-0.879,-0.8782,-0.875,-0.8733,-0.8914,-0.8914,-0.8914,0,0,-0.8732,-0.8757,-0.8746,-0.8757,-0.8772,-0.8757,-0.8832,-0.8814,-0.8802,-0.8879,-0.8849,-0.8868,-0.8886,-0.884,-0.8822,-0.8853,-0.8734,-0.8781,-0.8771,-0.8769,-0.8741,-0.8724,-0.8709,-0.8909,-0.891,-0.8911,0,0,-0.8622,-0.8642,-0.8607,-0.862,-0.8642,-0.8673,-0.8664,-0.8698,-0.8713,-0.8685,-0.8741,-0.8728,-0.8715,-0.8724,-0.8727,-0.862,-0.8662,-0.8617,-0.8543,-0.8511,-0.8497,-0.8485,-0.8443,-0.8428,-0.861,-0.8609,-0.8609,0,-0.8549,-0.853,-0.8583,-0.856,-0.8562,-0.8632,-0.8595,-0.8606,-0.8624,-0.8623,-0.8658,-0.8641,-0.8659,-0.8615,-0.8589,-0.859,-0.858,-0.8613,-0.8495,-0.8483,-0.8472,-0.8433,-0.8418,-0.8603,-0.8604,-0.8605,-0.8605,0,-0.8438,-0.8424,-0.8393,-0.8409,-0.8408,-0.8379,-0.8425,-0.8418,-0.8452,-0.8479,-0.8447,-0.8471,-0.8471,-0.8464,-0.8498,-0.8424,-0.8442,-0.8485,-0.8546,-0.8448,-0.8413,-0.8398,-0.8595,-0.8597,-0.8599,-0.86,0,0,-0.8266,-0.8313,-0.83,-0.8307,-0.8336,-0.8325,-0.8298,-0.8299,-0.829,-0.8301,-0.8277,-0.8264,-0.8304,-0.8307,-0.8343,-0.8315,-0.8225,-0.8362,-0.8363,-0.8333,-0.8142,-0.8106,-0.8088,-0.8254,-0.8252,-0.825,-0.8139,0,-0.8161,-0.8118,-0.8164,-0.8111,-0.8096,-0.8162,-0.8138,-0.8152,-0.8176,-0.8166,-0.8193,-0.8181,-0.8236,-0.8238,-0.8215,-0.8241,-0.8187,-0.825,-0.823,-0.8229,-0.822,-0.807,-0.8034,-0.7928,-0.8126,-0.8123,-0.8122,0,-0.8032,-0.8036,-0.7981,-0.8012,-0.8007,-0.7985,-0.7989,-0.798,-0.7996,-0.8015,-0.8018,-0.8061,-0.8035,-0.8096,-0.8058,-0.81,-0.8095,-0.8106,-0.8103,-0.81,-0.8167,-0.806,-0.7896,-0.7878,-0.8101,-0.8103,-0.8104,0,-0.7908,-0.79,-0.7866,-0.7871,-0.7906,-0.7888,-0.7902,-0.7922,-0.7919,-0.7922,-0.792,-0.792,-0.7919,-0.7917,-0.7957,-0.7999,-0.7913,-0.7979,-0.7926,-0.7925,-0.7903,-0.7903,-0.7731,-0.7905,-0.7905,-0.7905,-0.7905,0,-0.7783,-0.7746,-0.781,-0.7788,-0.7748,-0.7802,-0.7759,-0.778,-0.7796,-0.7778,-0.7836,-0.7817,-0.7874,-0.7861,-0.7893,-0.7855,-0.7855,-0.7868,-0.7876,-0.7861,-0.7858,-0.7856,-0.7863,-0.7901,-0.7902,-0.7903,-0.7903,0,-0.7637,-0.7679,-0.7645,-0.7681,-0.7689,-0.7657,-0.7688,-0.7668,-0.7697,-0.7673,-0.767,-0.7713,-0.7701,-0.7742,-0.7737,-0.7758,-0.7701,-0.7723,-0.7695,-0.7701,-0.7644,-0.7648,-0.7462,-0.7439,-0.763,-0.7628,-0.7627,0,-0.7553,-0.7526,-0.7559,-0.7552,-0.7563,-0.755,-0.7547,-0.7599,-0.7593,-0.7609,-0.7586,-0.7579,-0.7575,-0.7551,-0.7581,-0.7576,-0.7597,-0.7532,-0.7596,-0.758,-0.7591,-0.7591,-0.7587,-0.7518,-0.7515,-0.7513,-0.7512,0,-0.7399,-0.7421,-0.7415,-0.7416,-0.7411,-0.7415,-0.7421,-0.7412,-0.7467,-0.7457,-0.7445,-0.7442,-0.7436,-0.7426,-0.7428,-0.7441,-0.7483,-0.7492,-0.7479,-0.7461,-0.7444,-0.7449,-0.7655,-0.7495,-0.7497,-0.7498,-0.7499,-0.75,-0.7279,-0.7257,-0.7276,-0.7268,-0.7278,-0.7283,-0.7266,-0.7292,-0.7283,-0.7282,-0.7313,-0.7294,-0.7309,-0.7316,-0.7324,-0.7308,-0.7338,-0.732,-0.7315,-0.7308,-0.7297,-0.745,-0.7309,-0.731,-0.731,-0.7311,-0.7311,0,-0.7125,-0.7141,-0.7132,-0.714,-0.7132,-0.7176,-0.7186,-0.7176,-0.7158,-0.717,-0.7165,-0.715,-0.714,-0.717,-0.7164,-0.7146,-0.7165,-0.7142,-0.7142,-0.7144,-0.7273,-0.7283,-0.7126,-0.7126,-0.7126,-0.7126,-0.7127,-0.7127,-0.7043,-0.7007,-0.7031,-0.7,-0.7016,-0.6998,-0.6999,-0.7003,-0.7012,-0.6993,-0.6986,-0.7005,-0.7023,-0.7019,-0.7011,-0.702,-0.7014,-0.6983,-0.6998,-0.7117,-0.7135,-0.7152,-0.7162,-0.6982,-0.6982,-0.687,-0.6869,-0.6868]}]]